Guymon, OK

12:38 PM CST on February 23, 2017 (GMT -0600)
Guymon Municipal

Weather History for KGUY - July, 2012

Change the Weather History Date:

Friday, July 27, 2012

  Actual Average Record
Temperature  
Mean Temperature 82 °F 80 °F  
Max Temperature 98 °F 94 °F 107 °F (2011)
Min Temperature 66 °F 66 °F 52 °F (2005)
Degree Days  
Heating Degree Days 0 0  
Month to date heating degree days 0 0  
Since 1 June heating degree days 0 8  
Since 1 July heating degree days 0 0  
Cooling Degree Days 17 15  
Month to date cooling degree days 456 395  
Year to date cooling degree days 1190 783  
Since 1 June cooling degree days 925 675  
Growing Degree Days 32 (Base 50)    
Moisture  
Dew Point 58 °F    
Average Humidity 52    
Maximum Humidity 81    
Minimum Humidity 22    
Precipitation  
Precipitation 0.00 in 0.10 in 0.17 in (2016)
Month to date precipitation 2.43 2.29  
Year to date precipitation 8.52 11.48  
Snow  
Snow 0.00 in - - ()
Month to date snowfall 0.0  
Since 1 June snowfall 0.0  
Since 1 July snowfall 0.0  
Snow Depth 0.00 in    
Sea Level Pressure  
Sea Level Pressure 29.93 in    
Wind  
Wind Speed 5 mph (SE)    
Max Wind Speed 16 mph    
Max Gust Speed 28 mph    
Visibility 10 miles    
Events      
T = Trace of Precipitation, MM = Missing Value Source: NWS Daily Summary

Daily Weather History Graph

Daily Weather History Graph

Search for Another Location

Airport or City:

Trip Planner

Search our weather history database for the weather conditions in past years. The results will help you decide how hot, cold, wet, or windy it might be!

Date:

Astronomy

Jul. 27, 2012 Rise Set
Actual Time 6:48 AM CDT 8:56 PM CDT
Civil Twilight 6:19 AM CDT 9:25 PM CDT
Nautical Twilight 5:44 AM CDT 10:00 PM CDT
Astronomical Twilight 5:05 AM CDT 10:38 PM CDT
Moon 3:55 PM CDT (7/27) 1:21 AM CDT (7/27)
Length of Visible Light 15h 05m
Length of Day
14h 07m
Waxing Gibbous, 65% of the Moon is Illuminated
Jul 27
Waxing Gibbous
Aug 1
Full
Aug 9
Last Quarter
Aug 17
New
Aug 24
First Quarter

Hourly Weather History & Observations

Time (CDT) Temp. Heat Index Dew Point Humidity Pressure Visibility Wind Dir Wind Speed Gust Speed Precip Events Conditions
12:53 AM 77.0 °F - 59.0 °F 54% 29.88 in 10.0 mi ESE 5.8 mph - N/A   Clear
1:53 AM 75.0 °F - 60.1 °F 60% 29.88 in 10.0 mi Calm Calm - N/A   Clear
2:53 AM 72.0 °F - 61.0 °F 68% 29.90 in 10.0 mi Calm Calm - N/A   Clear
3:53 AM 69.1 °F - 62.1 °F 78% 29.91 in 10.0 mi WNW 3.5 mph - N/A   Clear
4:53 AM 68.0 °F - 63.0 °F 84% 30.07 in 10.0 mi ESE 4.6 mph - N/A   Clear
5:53 AM 69.1 °F - 60.1 °F 73% 29.92 in 10.0 mi WNW 3.5 mph - N/A   Clear
6:53 AM 66.0 °F - 59.0 °F 78% 29.93 in 10.0 mi Calm Calm - N/A   Clear
7:53 AM 69.1 °F - 60.1 °F 73% 29.94 in 10.0 mi Calm Calm - N/A   Clear
8:53 AM 75.0 °F - 61.0 °F 62% 29.95 in 10.0 mi Calm Calm - N/A   Clear
9:53 AM 82.9 °F 84.0 °F 63.0 °F 51% 29.96 in 10.0 mi North 4.6 mph - N/A   Clear
10:53 AM 88.0 °F 87.9 °F 61.0 °F 40% 29.96 in 10.0 mi Calm Calm - N/A   Clear
11:53 AM 91.0 °F 90.2 °F 59.0 °F 34% 29.96 in 10.0 mi NNE 4.6 mph - N/A   Clear
12:53 PM 93.0 °F 91.4 °F 55.9 °F 29% 29.96 in 10.0 mi ESE 6.9 mph - N/A   Clear
1:53 PM 95.0 °F 92.5 °F 53.1 °F 24% 29.94 in 10.0 mi East 8.1 mph - N/A   Clear
2:53 PM 95.0 °F 93.0 °F 55.0 °F 26% 29.93 in 10.0 mi SSE 6.9 mph 18.4 mph N/A   Clear
3:53 PM 95.0 °F 92.5 °F 53.1 °F 24% 29.92 in 10.0 mi SE 12.7 mph 19.6 mph N/A   Scattered Clouds
4:53 PM 97.0 °F - 52.0 °F 22% 29.90 in 10.0 mi ESE 9.2 mph - N/A   Partly Cloudy
5:53 PM 96.1 °F - 52.0 °F 22% 29.89 in 10.0 mi SE 8.1 mph - N/A   Scattered Clouds
6:53 PM 96.1 °F - 51.1 °F 22% 29.89 in 10.0 mi ESE 9.2 mph - N/A   Partly Cloudy
7:53 PM 93.0 °F - 52.0 °F 25% 29.90 in 10.0 mi SSE 8.1 mph - N/A   Clear
8:53 PM 89.1 °F 86.9 °F 54.0 °F 30% 29.91 in 10.0 mi SE 6.9 mph - N/A   Clear
9:53 PM 84.9 °F 83.7 °F 55.9 °F 37% 29.92 in 10.0 mi SSE 8.1 mph - N/A   Clear
10:53 PM 81.0 °F 81.1 °F 57.9 °F 45% 29.94 in 10.0 mi SSE 5.8 mph - N/A   Clear
11:53 PM 79.0 °F - 60.1 °F 52% 29.96 in 10.0 mi South 6.9 mph - N/A   Clear